SCP
0 -0 -0 0 0 0 0 0 0 0 0 0 0 0 0 -0 0 0 -0 -0 -0 -0 -0 -0 -0 -0 -0 -0 -0 -0 -0 -0 -0 -0 -0 -0 -0 -0 -0 -0 -0 -0 -0 -0 -0 -0 -0 -0 0
0 0 0 0 0 0 0 0 0 0 0 0 0 0 0 0 0 0 -0 0 0 -0 -0 -0 0 -0 -0 -0 -0 -0 -0 -0 -0 -0 -0 -0 -0 -0 -0 -0 -0 -0 -0 -0 -0 -0 -0 -0 -0
0 0 0 0 0 0 0 0 0 0 0 0 0 0 0 0 0 0 0 0 0 0 0 0 0 0 0 0 -0 -0 -0 -0 -0 -0 -0 -0 -0 0 0 -0 -0 -0 -0 0 0 0 0 0 0
0 0 0 0 0 0 0 0 0 0 0 0 0 0 0 0 0 0 0 0 0 0 0 0 0 0 0 0 0 0 0 -0 0 0 0 0 0 0 0 0 0 0 0 0 0 0 0 0 0
0 0 0 0 0 0 0 0 0 0 0 0 0 0 0 0 0 0 0 0 0 0 0 0 0 0 0 0 0 0 0 0 0 0 0 0 0 0 0 0 0 0 0 0 0 0 0 0 0
0 0 0 0 0 0 0 0 0 0 0 0 0 0 0 0 0 0 0 0 0 0 0 0 0 0 0 0 0 0 0 0 0 0 0 0 0 0 0 0 0 0 0 0 0 0 0 0 0
0 0 0 0 0 0 0 0 0 0 0 0 0 0 0 0 0 0 0 0 0 0 0 0 0 0 0 0 0 0 0 0 0 0 0 0 0 0 0 0 0 0 0 0 0 0 0 0 0
0 0 0 0 0 0 0 0 0 0 0 0 0 0 0 0 0 0 0 0 0 0 0 0 0 0 0 0 0 0 0 0 0 0 0 0 0 0 0 0 0 0 0 0 0 0 0 0 0
0 0 0 0 0 0 0 0 0 0 0 0 0 0 0 0 0 0 0 0 0 0 0 0 0 0 0 0 0 0 0 0 0 0 0 0 0 0 0 0 0 0 0 0 0 0 0 0 -0
0 0 0 0 0 0 0 0 0 0 0 0 0 0 0 -0 -0 0 0 0 0 0 0 0 0 0 0 0 0 0 0 0 0 0 0 0 0 0 0 0 0 0 0 0 0 0 0 0 0
0 0 0 0 0 0 0 0 0 0 0 0 0 0 0 -0 -0 -0 0 0 0 0 0 0 0 0 0 0 0 0 0 0 0 0 0 0 0 0 0 0 0 0 0 0 0 0 0 0 0
0 0 0 0 0 0 0 0 0 0 0 0 0 0 0 0 0 -0 0 0 0 0 0 0 0 0 0 0 0 0 0 0 0 0 0 0 0 0 0 0 0 0 0 0 0 0 0 0 0
0 0 0 0 0 0 0 0 0 0 0 0 0 0 0 0 0 0 0 0 0 0 0 0 0 0 0 0 0 0 0 0 0 0 0 0 0 0 0 0 0 0 0 0 0 0 0 0 0
0 0 0 0 0 0 0 0 0 0 0 0 0 0 0 0 0 0 0 0 0 0 0 0 0 0 0 0 0 0 0 0 0 0 0 0 0 0 0 0 0 0 0 0 0 0 0 -0 -0
0 0 0 0 0 0 0 0 0 0 0 0 0 0 0 0 0 0 0 0 0 0 0 0 0 0 0 0 0 0 0 0 0 0 0 0 0 0 0 0 0 0 0 0 0 0 -0 -0 -0
0 0 0 0 0 0 0 0 0 0 0 0 0 0 0 0 0 0 0 0 0 0 0 0 0 0 0 0 0 0 0 0 0 0 0 0 0 0 0 0 0 0 0 0 0 0 -0 -0 -0
0 0 0 0 0 0 0 0 0 0 0 0 0 0 0 0 0 0 0 0 0 0 0 0 0 0 0 0 0 0 0 0 0 0 0 0 0 0 0 0 0 0 0 0 0 0 0 0 -0
0 0 0 0 0 0 0 0 0 0 0 0 0 0 0 0 0 0 0 0 0 0 0 0 0 0 0 0 0 0 0 0 0 0 0 0 0 0 0 0 0 0 0 0 0 0 0 0 0
0 0 0 0 0 0 0 0 0 0 0 0 0 0 0 0 0 0 0 0 0 0 0 0 0 0 0 0 0 0 0 0 0 0 0 0 0 0 0 0 0 0 0 -0 -0 0 0 0 0
0 0 0 0 0 0 0 0 0 0 0 0 0 0 0 0 0 0 0 0 0 0 0 0 0 0 0 0 0 0 0 0 0 0 0 0 0 0 0 0 0 0 0 -0 0 0 0 0 0
0 0 0 0 0 0 0 0 0 0 0 0 0 0 0 0 0 0 0 0 0 0 0 0 0 0 0 0 0 0 0 0 0 0 0 0 0 0 0 0 0 0 0 -0 0 0 0 0 0
0 0 0 0 0 0 0 -0 0 0 0 0 0 0 0 0 0 0 0 0 0 0 0 0 0 0 0 0 0 0 0 0 0 0 0 0 0 0 0 0 0 0 0 -0 0 0 0 0 0
0 0 0 0 0 0 0 0 0 0 0 0 0 0 0 0 0 0 0 0 0 0 0 0 0 0 0 0 0 0 0 0 0 0 0 0 0 0 0 0 0 0 0 0 0 0 0 0 0
0 0 0 0 0 0 0 0 0 0 0 0 0 0 0 0 0 0 0 0 0 0 0 0 0 0 0 0 0 0 0 0 0 0 0 0 0 0 0 0 0 0 0 0 0 0 0 0 0
0 0 0 0 0 0 0 0 0 0 0 0 0 0 0 0 0 0 0 0 0 0 0 0 0 0 0 0 0 0 0 0 0 0 0 0 0 0 0 0 0 0 0 0 0 0 0 0 0
0 0 0 0 0 -0 0 0 0 0 0 0 0 0 0 0 0 0 0 0 0 0 0 0 0 0 0 0 0 0 0 0 0 0 0 0 0 0 0 0 0 0 0 0 0 0 0 0 0
0 0 0 0 0 0 0 0 0 0 0 0 0 0 0 0 0 0 0 0 0 0 0 0 0 0 0 0 0 0 0 0 0 0 0 0 0 0 0 0 0 0 0 0 0 0 0 0 0
0 0 0 0 0 0 -0 0 0 0 0 0 0 0 0 0 0 0 0 0 0 0 0 0 0 0 0 0 0 0 0 0 0 0 0 0 0 0 0 0 0 0 0 0 0 0 0 0 0
0 0 0 0 0 0 0 0 0 0 0 0 0 0 0 0 0 0 0 0 0 0 0 0 0 0 0 0 0 0 0 0 0 0 0 0 0 0 0 0 0 0 0 0 0 0 0 0 0
0 0 0 0 0 0 0 -0 0 0 0 0 0 0 0 0 0 0 0 0 0 0 0 0 0 0 0 0 0 0 0 0 0 0 0 0 0 0 0 0 0 0 0 0 0 0 0 0 0
Wind_Speed_500mb
9 6 3 4 11 10 9 9 4 15 11 8 8 11 10 9 4 3 13 27 24 15 8 7 3 4 7 8 12 15 15 16 18 18 17 16 18 20 22 22 23 24 25 26 28 30 31 33 32
9 5 3 9 12 16 5 10 14 15 12 17 12 6 8 5 4 5 15 30 24 17 13 7 6 6 6 10 13 16 17 19 20 22 22 22 23 23 25 26 26 28 28 28 30 30 32 34 34
9 7 11 8 12 16 9 10 13 16 17 17 12 9 5 2 6 16 24 30 22 18 16 11 4 4 4 7 9 12 15 17 20 22 24 26 27 29 29 31 31 32 33 35 37 38 39 39 39
0 6 12 12 23 6 10 6 14 22 11 9 5 8 3 17 13 16 29 29 23 18 11 4 5 2 2 4 7 9 10 12 14 15 16 17 18 20 23 26 30 34 37 40 41 43 43 42 44
4 11 14 15 19 6 5 3 16 21 14 15 14 2 4 12 23 19 31 28 25 20 16 15 10 6 6 7 7 9 10 12 13 13 15 17 19 21 22 25 27 29 31 35 39 41 44 46 47
12 10 13 17 9 1 6 10 18 21 13 11 14 14 7 19 25 26 30 32 28 25 23 19 14 12 11 8 7 8 9 10 11 12 13 15 16 18 21 23 26 28 30 32 36 41 45 46 47
14 11 21 18 18 11 12 15 23 22 21 20 4 10 4 19 26 32 35 35 32 30 27 23 20 16 14 11 11 11 10 11 11 11 10 11 13 16 21 26 30 33 36 37 38 38 40 40 44
8 7 14 11 12 13 8 17 8 24 24 18 14 12 17 26 32 35 38 38 38 39 35 32 28 21 17 15 16 15 13 12 9 9 11 13 16 21 24 29 32 36 39 42 44 44 42 39 40
6 9 13 11 9 4 8 19 9 13 20 15 21 19 20 20 31 38 41 42 43 45 42 37 30 24 22 21 19 17 17 14 12 11 13 14 16 19 21 25 29 33 36 37 38 40 41 43 45
14 10 11 3 8 9 13 23 17 12 27 36 33 33 38 34 36 43 47 49 50 51 48 41 35 31 29 27 23 22 20 17 14 13 12 11 13 15 20 24 29 33 35 36 35 35 36 38 39
7 10 4 12 17 12 17 21 23 22 29 35 39 41 45 43 46 48 50 51 51 49 51 48 43 39 35 32 27 27 23 20 19 17 14 13 14 16 20 24 29 33 35 36 35 34 35 36 38
11 27 18 5 10 9 18 14 18 44 49 17 28 33 47 49 54 57 56 53 50 50 54 53 51 45 42 36 34 32 28 25 22 18 16 16 17 19 23 27 31 36 37 37 38 38 39 41 42
21 23 16 19 14 22 17 30 25 44 47 44 33 39 40 48 53 54 53 51 51 55 56 59 57 51 46 42 40 36 32 28 24 21 19 18 18 21 24 28 34 39 42 42 42 42 42 43 44
12 19 25 18 26 21 20 30 12 30 32 49 45 41 43 50 53 51 56 59 61 60 60 61 60 56 51 47 43 39 34 29 25 22 20 18 21 23 26 31 36 42 45 46 45 47 50 51 52
13 18 25 31 28 13 16 22 36 55 24 27 39 46 45 52 51 62 60 63 62 65 58 63 62 58 54 50 45 42 36 32 28 25 23 22 22 25 28 32 38 43 46 48 48 48 51 55 56
12 12 21 2 22 12 16 36 21 21 25 32 38 43 47 55 62 61 59 61 62 63 65 64 63 62 57 53 49 45 40 37 33 29 25 23 24 26 30 34 39 43 46 47 48 50 56 60 64
20 25 32 25 30 7 26 30 8 11 17 37 43 48 52 55 57 60 60 63 65 66 63 68 67 64 60 58 53 49 45 41 38 32 28 26 27 28 31 35 38 41 44 46 47 51 57 62 69
33 33 30 32 19 26 28 42 45 47 42 54 61 61 62 64 61 55 58 61 61 63 64 68 70 68 65 63 59 54 50 47 43 37 32 31 33 32 33 36 39 40 42 43 48 55 57 62 68
45 42 45 51 15 21 38 43 49 59 53 60 67 67 65 64 55 54 56 61 65 65 68 72 72 72 72 70 65 59 57 53 48 42 38 36 35 34 35 36 40 43 44 43 46 50 55 58 61
39 43 51 45 13 14 34 44 44 44 56 69 65 65 60 47 44 49 52 62 76 73 75 74 72 74 76 74 68 64 59 57 52 48 43 41 39 38 37 38 41 44 43 41 43 48 53 55 49
39 42 45 42 16 24 27 32 31 27 45 53 58 73 59 49 43 49 59 65 70 76 77 79 79 80 82 78 73 69 63 58 55 53 50 45 41 39 39 40 42 44 43 39 44 50 51 51 51
41 33 37 37 22 23 5 28 24 30 34 29 49 70 51 37 36 41 52 62 68 70 70 72 78 83 83 81 81 75 69 64 58 55 52 47 42 39 39 41 44 43 44 42 46 47 49 52 52
25 7 9 18 26 33 28 27 29 15 19 25 34 67 53 27 32 41 55 58 58 60 64 70 77 85 87 86 83 78 73 67 61 60 54 48 43 41 42 43 43 44 44 40 47 51 53 55 56
9 7 10 9 14 22 33 36 16 16 9 9 24 58 23 22 21 32 40 46 52 58 63 71 76 85 85 87 85 83 78 72 68 63 56 50 44 44 45 42 41 43 46 46 52 58 63 65 66
16 12 11 16 15 35 27 27 31 18 26 28 42 61 16 14 22 35 43 47 51 60 62 66 69 78 82 85 89 88 83 76 71 64 58 50 47 45 42 42 44 46 49 51 58 64 68 68 69
28 22 12 26 30 50 5 28 22 25 34 44 54 36 26 23 27 36 41 43 51 58 62 58 62 70 80 82 90 91 87 82 74 66 56 53 49 43 42 43 46 49 51 55 62 66 69 69 72
17 14 6 17 1 18 28 41 31 14 21 33 19 25 39 32 37 44 47 49 54 58 62 58 61 63 74 82 88 95 90 86 76 65 58 52 45 45 43 46 48 50 54 58 64 69 70 71 73
11 4 9 8 13 33 55 44 28 31 35 23 16 24 46 27 35 39 47 50 54 58 61 67 66 64 68 80 91 95 93 83 73 66 58 49 47 46 45 47 48 51 56 61 65 69 70 73 76
11 13 12 6 15 22 38 23 13 16 11 17 16 26 34 19 25 28 41 49 55 63 69 71 65 70 72 81 92 96 92 82 74 67 55 49 48 46 47 48 50 53 56 61 65 66 70 73 76
16 42 37 19 27 17 27 55 14 2 7 8 13 20 20 20 25 42 55 48 58 72 75 75 71 73 76 83 91 97 94 83 76 64 55 51 47 46 47 48 50 52 56 61 63 66 69 71 74
Wind_Direction_500mb
177 171 146 260 245 235 237 195 115 164 168 144 195 176 260 337 297 354 173 168 172 171 181 193 193 241 254 247 253 260 255 257 266 269 270 274 276 279 281 287 291 295 294 294 293 294 297 299 301
175 185 273 271 255 247 152 137 184 172 107 157 168 224 258 218 87 151 144 171 173 177 189 200 199 243 251 255 255 261 260 261 265 269 274 276 275 279 282 287 287 288 288 287 286 288 292 291 295
166 177 258 243 259 269 348 166 165 112 139 168 177 221 300 74 159 160 194 178 181 186 202 207 216 253 263 273 279 274 276 277 272 272 273 274 280 282 285 286 286 288 290 291 291 290 289 292 291
350 233 244 250 260 280 312 181 137 148 159 189 221 208 215 198 165 185 178 183 194 198 213 193 166 140 3 327 314 311 311 304 306 308 300 296 295 295 293 291 293 293 292 290 289 289 290 290 290
227 254 255 249 275 279 242 264 169 179 164 182 193 218 221 228 208 204 186 196 201 202 202 195 202 213 246 273 287 296 301 307 307 309 306 307 307 304 300 297 294 292 292 291 290 289 286 282 280
243 273 253 260 285 195 242 201 194 199 182 151 205 245 238 232 213 205 199 201 205 205 203 208 219 225 241 251 273 280 280 283 287 292 294 299 303 308 310 311 313 312 309 305 302 297 294 294 291
262 261 276 296 277 253 227 190 203 210 200 210 225 236 185 224 211 207 201 207 208 209 208 216 223 229 241 253 264 266 272 279 289 297 307 318 324 331 335 336 335 334 331 327 322 316 312 304 294
251 268 272 256 294 271 165 190 230 223 233 189 192 232 228 223 211 208 209 210 211 211 212 216 220 226 237 250 261 267 274 278 292 307 324 334 340 345 343 336 334 331 329 327 324 322 319 315 310
218 250 264 271 264 348 166 209 212 231 224 206 221 241 226 215 212 205 210 212 214 217 219 222 224 228 235 240 245 252 261 269 277 298 316 326 333 333 333 335 332 328 323 319 319 320 321 322 320
236 252 277 308 261 246 196 226 209 223 224 232 236 232 238 223 215 211 213 216 218 221 223 223 225 226 231 234 235 237 235 235 244 255 266 285 302 319 330 334 334 329 322 316 315 315 316 317 316
210 251 353 247 243 245 239 226 216 224 247 232 236 233 231 218 223 221 221 221 224 223 225 225 227 229 231 233 236 237 233 232 236 240 254 276 298 313 321 323 324 324 320 316 316 318 318 319 319
256 248 246 251 229 235 235 255 228 227 236 248 243 242 221 222 225 227 224 219 216 215 222 223 226 226 228 229 229 229 229 233 238 247 264 279 294 305 312 315 319 322 325 324 324 325 324 322 320
246 273 250 247 231 237 250 241 248 256 250 248 246 235 216 229 229 230 226 222 215 216 220 223 225 226 227 226 227 229 231 232 238 249 261 272 284 301 311 314 319 323 326 326 326 325 324 322 320
343 280 263 256 244 236 232 258 243 264 250 243 236 238 229 229 230 226 222 220 216 217 221 222 223 224 224 224 225 226 229 233 239 250 264 280 295 304 309 316 320 322 325 324 327 329 329 328 326
274 279 270 245 239 241 214 250 236 255 251 237 234 236 234 232 227 229 230 225 221 223 218 222 222 222 223 224 225 228 230 236 245 254 264 279 289 297 306 315 318 321 324 326 329 330 329 327 325
257 252 267 295 186 203 194 268 248 254 208 237 243 243 240 235 234 232 226 226 221 221 219 221 221 222 223 225 227 230 232 236 240 245 255 266 279 293 305 312 316 321 322 324 326 328 328 326 325
212 264 266 247 191 177 208 267 273 180 237 261 259 256 249 244 237 230 225 223 221 220 216 221 221 223 223 226 226 229 233 235 239 241 250 265 279 289 298 305 312 316 319 320 323 326 326 325 325
271 266 266 263 198 214 232 251 270 268 268 265 267 266 262 252 243 235 226 220 219 216 216 221 222 222 223 226 227 229 231 234 238 240 250 263 273 283 294 304 310 314 314 319 325 325 324 324 323
275 282 278 273 266 213 241 253 264 277 276 274 271 273 264 258 254 235 226 218 214 212 213 220 220 221 224 225 226 228 232 234 236 239 247 259 271 280 291 300 306 312 316 321 322 321 320 321 322
263 263 269 275 273 209 267 267 267 271 268 267 274 273 268 268 245 227 218 212 215 216 221 221 221 222 226 228 229 231 233 233 235 238 246 256 267 277 289 300 306 309 311 315 319 318 317 318 321
249 252 261 263 273 220 273 272 258 248 253 261 268 266 270 263 246 219 211 209 214 217 223 223 225 227 229 229 227 228 230 232 234 238 245 254 264 278 292 300 303 303 304 313 315 313 312 311 314
262 268 253 266 273 265 157 285 273 286 267 240 266 276 272 259 233 217 207 209 217 220 223 228 228 229 230 229 229 230 234 234 236 238 242 252 267 279 289 294 296 302 304 313 311 307 307 309 310
250 341 258 253 256 277 263 269 271 224 265 250 247 262 276 279 226 216 220 219 219 219 223 228 228 229 231 231 231 231 230 231 231 237 242 253 264 276 283 288 296 300 300 304 303 304 307 307 303
114 255 243 232 260 253 253 239 281 234 205 238 256 263 255 258 229 209 212 214 213 220 222 229 230 231 231 233 231 231 231 230 232 236 242 251 264 273 281 289 292 294 298 304 305 305 305 303 298
201 212 270 248 228 262 270 263 265 278 254 239 257 265 274 230 206 201 203 210 215 218 222 228 230 232 235 234 230 229 230 231 233 236 241 250 258 268 279 285 289 293 297 302 303 303 302 299 295
197 215 220 273 270 284 240 265 255 250 239 239 251 258 252 226 220 218 214 222 225 223 221 222 228 230 234 236 229 229 229 230 232 236 242 250 259 268 274 279 284 289 296 300 302 301 298 296 294
161 204 293 272 215 280 268 259 255 168 199 228 232 238 251 234 231 228 230 238 232 226 226 228 230 230 233 238 231 229 228 229 231 234 240 249 260 268 272 276 281 291 296 300 300 298 298 297 295
229 110 179 214 275 266 279 281 269 265 235 222 232 238 260 244 229 236 239 239 236 235 233 228 231 235 235 233 233 231 229 227 229 233 240 249 258 265 269 276 286 292 297 299 299 299 299 296 294
185 222 222 287 240 258 278 273 74 111 148 177 215 240 257 253 254 258 255 252 247 241 235 231 233 234 232 231 232 231 229 225 226 232 238 247 256 263 271 279 286 292 296 298 299 300 301 297 295
265 232 217 221 226 231 251 273 70 211 251 148 157 220 233 239 260 282 271 262 255 243 237 236 236 236 234 231 228 229 229 223 226 230 237 245 254 263 270 278 286 292 297 300 301 302 300 296 295
Wind_Speed_850mb
9 6 3 4 11 10 9 9 4 15 11 8 8 11 10 9 4 3 13 27 24 15 8 7 3 4 7 8 12 15 15 16 18 18 17 16 18 20 22 22 23 24 25 26 28 30 31 33 32
9 5 3 9 12 16 5 10 14 15 12 17 12 6 8 5 4 5 15 30 24 17 13 7 6 6 6 10 13 16 17 19 20 22 22 22 23 23 25 26 26 28 28 28 30 30 32 34 34
9 7 11 8 12 16 9 10 13 16 17 17 12 9 5 2 6 16 24 30 22 18 16 11 4 4 4 7 9 12 15 17 20 22 24 26 27 29 29 31 31 32 33 35 37 38 39 39 39
0 6 12 12 23 6 10 6 14 22 11 9 5 8 3 17 13 16 29 29 23 18 11 4 5 2 2 4 7 9 10 12 14 15 16 17 18 20 23 26 30 34 37 40 41 43 43 42 44
4 11 14 15 19 6 5 3 16 21 14 15 14 2 4 12 23 19 31 28 25 20 16 15 10 6 6 7 7 9 10 12 13 13 15 17 19 21 22 25 27 29 31 35 39 41 44 46 47
12 10 13 17 9 1 6 10 18 21 13 11 14 14 7 19 25 26 30 32 28 25 23 19 14 12 11 8 7 8 9 10 11 12 13 15 16 18 21 23 26 28 30 32 36 41 45 46 47
14 11 21 18 18 11 12 15 23 22 21 20 4 10 4 19 26 32 35 35 32 30 27 23 20 16 14 11 11 11 10 11 11 11 10 11 13 16 21 26 30 33 36 37 38 38 40 40 44
8 7 14 11 12 13 8 17 8 24 24 18 14 12 17 26 32 35 38 38 38 39 35 32 28 21 17 15 16 15 13 12 9 9 11 13 16 21 24 29 32 36 39 42 44 44 42 39 40
6 9 13 11 9 4 8 19 9 13 20 15 21 19 20 20 31 38 41 42 43 45 42 37 30 24 22 21 19 17 17 14 12 11 13 14 16 19 21 25 29 33 36 37 38 40 41 43 45
14 10 11 3 8 9 13 23 17 12 27 36 33 33 38 34 36 43 47 49 50 51 48 41 35 31 29 27 23 22 20 17 14 13 12 11 13 15 20 24 29 33 35 36 35 35 36 38 39
7 10 4 12 17 12 17 21 23 22 29 35 39 41 45 43 46 48 50 51 51 49 51 48 43 39 35 32 27 27 23 20 19 17 14 13 14 16 20 24 29 33 35 36 35 34 35 36 38
11 27 18 5 10 9 18 14 18 44 49 17 28 33 47 49 54 57 56 53 50 50 54 53 51 45 42 36 34 32 28 25 22 18 16 16 17 19 23 27 31 36 37 37 38 38 39 41 42
21 23 16 19 14 22 17 30 25 44 47 44 33 39 40 48 53 54 53 51 51 55 56 59 57 51 46 42 40 36 32 28 24 21 19 18 18 21 24 28 34 39 42 42 42 42 42 43 44
12 19 25 18 26 21 20 30 12 30 32 49 45 41 43 50 53 51 56 59 61 60 60 61 60 56 51 47 43 39 34 29 25 22 20 18 21 23 26 31 36 42 45 46 45 47 50 51 52
13 18 25 31 28 13 16 22 36 55 24 27 39 46 45 52 51 62 60 63 62 65 58 63 62 58 54 50 45 42 36 32 28 25 23 22 22 25 28 32 38 43 46 48 48 48 51 55 56
12 12 21 2 22 12 16 36 21 21 25 32 38 43 47 55 62 61 59 61 62 63 65 64 63 62 57 53 49 45 40 37 33 29 25 23 24 26 30 34 39 43 46 47 48 50 56 60 64
20 25 32 25 30 7 26 30 8 11 17 37 43 48 52 55 57 60 60 63 65 66 63 68 67 64 60 58 53 49 45 41 38 32 28 26 27 28 31 35 38 41 44 46 47 51 57 62 69
33 33 30 32 19 26 28 42 45 47 42 54 61 61 62 64 61 55 58 61 61 63 64 68 70 68 65 63 59 54 50 47 43 37 32 31 33 32 33 36 39 40 42 43 48 55 57 62 68
45 42 45 51 15 21 38 43 49 59 53 60 67 67 65 64 55 54 56 61 65 65 68 72 72 72 72 70 65 59 57 53 48 42 38 36 35 34 35 36 40 43 44 43 46 50 55 58 61
39 43 51 45 13 14 34 44 44 44 56 69 65 65 60 47 44 49 52 62 76 73 75 74 72 74 76 74 68 64 59 57 52 48 43 41 39 38 37 38 41 44 43 41 43 48 53 55 49
39 42 45 42 16 24 27 32 31 27 45 53 58 73 59 49 43 49 59 65 70 76 77 79 79 80 82 78 73 69 63 58 55 53 50 45 41 39 39 40 42 44 43 39 44 50 51 51 51
41 33 37 37 22 23 5 28 24 30 34 29 49 70 51 37 36 41 52 62 68 70 70 72 78 83 83 81 81 75 69 64 58 55 52 47 42 39 39 41 44 43 44 42 46 47 49 52 52
25 7 9 18 26 33 28 27 29 15 19 25 34 67 53 27 32 41 55 58 58 60 64 70 77 85 87 86 83 78 73 67 61 60 54 48 43 41 42 43 43 44 44 40 47 51 53 55 56
9 7 10 9 14 22 33 36 16 16 9 9 24 58 23 22 21 32 40 46 52 58 63 71 76 85 85 87 85 83 78 72 68 63 56 50 44 44 45 42 41 43 46 46 52 58 63 65 66
16 12 11 16 15 35 27 27 31 18 26 28 42 61 16 14 22 35 43 47 51 60 62 66 69 78 82 85 89 88 83 76 71 64 58 50 47 45 42 42 44 46 49 51 58 64 68 68 69
28 22 12 26 30 50 5 28 22 25 34 44 54 36 26 23 27 36 41 43 51 58 62 58 62 70 80 82 90 91 87 82 74 66 56 53 49 43 42 43 46 49 51 55 62 66 69 69 72
17 14 6 17 1 18 28 41 31 14 21 33 19 25 39 32 37 44 47 49 54 58 62 58 61 63 74 82 88 95 90 86 76 65 58 52 45 45 43 46 48 50 54 58 64 69 70 71 73
11 4 9 8 13 33 55 44 28 31 35 23 16 24 46 27 35 39 47 50 54 58 61 67 66 64 68 80 91 95 93 83 73 66 58 49 47 46 45 47 48 51 56 61 65 69 70 73 76
11 13 12 6 15 22 38 23 13 16 11 17 16 26 34 19 25 28 41 49 55 63 69 71 65 70 72 81 92 96 92 82 74 67 55 49 48 46 47 48 50 53 56 61 65 66 70 73 76
16 42 37 19 27 17 27 55 14 2 7 8 13 20 20 20 25 42 55 48 58 72 75 75 71 73 76 83 91 97 94 83 76 64 55 51 47 46 47 48 50 52 56 61 63 66 69 71 74
Wind_Direction_850mb
177 171 146 260 245 235 237 195 115 164 168 144 195 176 260 337 297 354 173 168 172 171 181 193 193 241 254 247 253 260 255 257 266 269 270 274 276 279 281 287 291 295 294 294 293 294 297 299 301
175 185 273 271 255 247 152 137 184 172 107 157 168 224 258 218 87 151 144 171 173 177 189 200 199 243 251 255 255 261 260 261 265 269 274 276 275 279 282 287 287 288 288 287 286 288 292 291 295
166 177 258 243 259 269 348 166 165 112 139 168 177 221 300 74 159 160 194 178 181 186 202 207 216 253 263 273 279 274 276 277 272 272 273 274 280 282 285 286 286 288 290 291 291 290 289 292 291
350 233 244 250 260 280 312 181 137 148 159 189 221 208 215 198 165 185 178 183 194 198 213 193 166 140 3 327 314 311 311 304 306 308 300 296 295 295 293 291 293 293 292 290 289 289 290 290 290
227 254 255 249 275 279 242 264 169 179 164 182 193 218 221 228 208 204 186 196 201 202 202 195 202 213 246 273 287 296 301 307 307 309 306 307 307 304 300 297 294 292 292 291 290 289 286 282 280
243 273 253 260 285 195 242 201 194 199 182 151 205 245 238 232 213 205 199 201 205 205 203 208 219 225 241 251 273 280 280 283 287 292 294 299 303 308 310 311 313 312 309 305 302 297 294 294 291
262 261 276 296 277 253 227 190 203 210 200 210 225 236 185 224 211 207 201 207 208 209 208 216 223 229 241 253 264 266 272 279 289 297 307 318 324 331 335 336 335 334 331 327 322 316 312 304 294
251 268 272 256 294 271 165 190 230 223 233 189 192 232 228 223 211 208 209 210 211 211 212 216 220 226 237 250 261 267 274 278 292 307 324 334 340 345 343 336 334 331 329 327 324 322 319 315 310
218 250 264 271 264 348 166 209 212 231 224 206 221 241 226 215 212 205 210 212 214 217 219 222 224 228 235 240 245 252 261 269 277 298 316 326 333 333 333 335 332 328 323 319 319 320 321 322 320
236 252 277 308 261 246 196 226 209 223 224 232 236 232 238 223 215 211 213 216 218 221 223 223 225 226 231 234 235 237 235 235 244 255 266 285 302 319 330 334 334 329 322 316 315 315 316 317 316
210 251 353 247 243 245 239 226 216 224 247 232 236 233 231 218 223 221 221 221 224 223 225 225 227 229 231 233 236 237 233 232 236 240 254 276 298 313 321 323 324 324 320 316 316 318 318 319 319
256 248 246 251 229 235 235 255 228 227 236 248 243 242 221 222 225 227 224 219 216 215 222 223 226 226 228 229 229 229 229 233 238 247 264 279 294 305 312 315 319 322 325 324 324 325 324 322 320
246 273 250 247 231 237 250 241 248 256 250 248 246 235 216 229 229 230 226 222 215 216 220 223 225 226 227 226 227 229 231 232 238 249 261 272 284 301 311 314 319 323 326 326 326 325 324 322 320
343 280 263 256 244 236 232 258 243 264 250 243 236 238 229 229 230 226 222 220 216 217 221 222 223 224 224 224 225 226 229 233 239 250 264 280 295 304 309 316 320 322 325 324 327 329 329 328 326
274 279 270 245 239 241 214 250 236 255 251 237 234 236 234 232 227 229 230 225 221 223 218 222 222 222 223 224 225 228 230 236 245 254 264 279 289 297 306 315 318 321 324 326 329 330 329 327 325
257 252 267 295 186 203 194 268 248 254 208 237 243 243 240 235 234 232 226 226 221 221 219 221 221 222 223 225 227 230 232 236 240 245 255 266 279 293 305 312 316 321 322 324 326 328 328 326 325
212 264 266 247 191 177 208 267 273 180 237 261 259 256 249 244 237 230 225 223 221 220 216 221 221 223 223 226 226 229 233 235 239 241 250 265 279 289 298 305 312 316 319 320 323 326 326 325 325
271 266 266 263 198 214 232 251 270 268 268 265 267 266 262 252 243 235 226 220 219 216 216 221 222 222 223 226 227 229 231 234 238 240 250 263 273 283 294 304 310 314 314 319 325 325 324 324 323
275 282 278 273 266 213 241 253 264 277 276 274 271 273 264 258 254 235 226 218 214 212 213 220 220 221 224 225 226 228 232 234 236 239 247 259 271 280 291 300 306 312 316 321 322 321 320 321 322
263 263 269 275 273 209 267 267 267 271 268 267 274 273 268 268 245 227 218 212 215 216 221 221 221 222 226 228 229 231 233 233 235 238 246 256 267 277 289 300 306 309 311 315 319 318 317 318 321
249 252 261 263 273 220 273 272 258 248 253 261 268 266 270 263 246 219 211 209 214 217 223 223 225 227 229 229 227 228 230 232 234 238 245 254 264 278 292 300 303 303 304 313 315 313 312 311 314
262 268 253 266 273 265 157 285 273 286 267 240 266 276 272 259 233 217 207 209 217 220 223 228 228 229 230 229 229 230 234 234 236 238 242 252 267 279 289 294 296 302 304 313 311 307 307 309 310
250 341 258 253 256 277 263 269 271 224 265 250 247 262 276 279 226 216 220 219 219 219 223 228 228 229 231 231 231 231 230 231 231 237 242 253 264 276 283 288 296 300 300 304 303 304 307 307 303
114 255 243 232 260 253 253 239 281 234 205 238 256 263 255 258 229 209 212 214 213 220 222 229 230 231 231 233 231 231 231 230 232 236 242 251 264 273 281 289 292 294 298 304 305 305 305 303 298
201 212 270 248 228 262 270 263 265 278 254 239 257 265 274 230 206 201 203 210 215 218 222 228 230 232 235 234 230 229 230 231 233 236 241 250 258 268 279 285 289 293 297 302 303 303 302 299 295
197 215 220 273 270 284 240 265 255 250 239 239 251 258 252 226 220 218 214 222 225 223 221 222 228 230 234 236 229 229 229 230 232 236 242 250 259 268 274 279 284 289 296 300 302 301 298 296 294
161 204 293 272 215 280 268 259 255 168 199 228 232 238 251 234 231 228 230 238 232 226 226 228 230 230 233 238 231 229 228 229 231 234 240 249 260 268 272 276 281 291 296 300 300 298 298 297 295
229 110 179 214 275 266 279 281 269 265 235 222 232 238 260 244 229 236 239 239 236 235 233 228 231 235 235 233 233 231 229 227 229 233 240 249 258 265 269 276 286 292 297 299 299 299 299 296 294
185 222 222 287 240 258 278 273 74 111 148 177 215 240 257 253 254 258 255 252 247 241 235 231 233 234 232 231 232 231 229 225 226 232 238 247 256 263 271 279 286 292 296 298 299 300 301 297 295
265 232 217 221 226 231 251 273 70 211 251 148 157 220 233 239 260 282 271 262 255 243 237 236 236 236 234 231 228 229 229 223 226 230 237 245 254 263 270 278 286 292 297 300 301 302 300 296 295